Weather History for Hereford, TX

Change the Weather History Date:

Sunday, December 1, 2013

  Actual Average (KAMA) Record (KAMA)
Temperature  
Mean Temperature 50 °F 40 °F  
Max Temperature 65 °F 53 °F 77 °F (1917)
Min Temperature 34 °F 26 °F 8 °F (1985)
Degree Days  
Heating Degree Days 16 25  
Month to date heating degree days 25  
Since 1 July heating degree days 869  
Cooling Degree Days 0 0  
Month to date cooling degree days 0  
Year to date cooling degree days 1399  
Moisture  
Dew Point 31 °F    
Average Humidity 63    
Maximum Humidity 87    
Minimum Humidity 17    
Precipitation  
Precipitation 0.00 in 0.02 in 0.24 in (1936)
Month to date precipitation 0.02  
Year to date precipitation 19.67  
Snow  
Snow 0.00 in 0.10 in 1.70 in (1971)
Month to date snowfall 0.1  
Since 1 July snowfall 2.8  
Snow Depth -    
Sea Level Pressure  
Sea Level Pressure 30.07 in    
Wind  
Wind Speed 4 mph (West)    
Max Wind Speed 17 mph    
Max Gust Speed 21 mph    
Visibility 10 miles    
Events      
T = Trace of Precipitation, MM = Missing Value Source: NWS Daily Summary

Daily Weather History Graph

Daily Weather History Graph

Search for Another Location

Airport:

Trip Planner

Search our weather history database for the weather conditions in past years. The results will help you decide how hot, cold, wet, or windy it might be!

Date:

Astronomy

Dec. 01, 2013 Rise Set
Actual Time 7:38 AM CST 5:37 PM CST
Civil Twilight 7:11 AM CST 6:05 PM CST
Nautical Twilight 6:39 AM CST 6:36 PM CST
Astronomical Twilight 6:09 AM CST 7:07 PM CST
Moon 6:02 AM CST (12/1) 4:47 PM CST (12/1)
Length of Visible Light 10h 54m
Length of Day
9h 59m
Waning Crescent, 2% of the Moon is Illuminated
Dec 1
Waning Crescent
Dec 2
New
Dec 9
First Quarter
Dec 17
Full
Dec 25
Last Quarter

Hourly Weather History & Observations

Time (CST) Temp. Windchill Dew Point Humidity Pressure Visibility Wind Dir Wind Speed Gust Speed Precip Events Conditions
12:15 AM 42.4 °F 40.7 °F 35.2 °F 76% 30.14 in 10.0 mi SW 3.5 mph - N/A   Clear
12:35 AM 42.1 °F 39.2 °F 34.9 °F 76% 30.14 in 10.0 mi SW 4.6 mph - N/A   Clear
12:55 AM 40.6 °F 37.5 °F 34.3 °F 78% 30.13 in 10.0 mi WSW 4.6 mph - N/A   Clear
1:15 AM 41.0 °F 37.1 °F 34.9 °F 79% 30.13 in 10.0 mi SSW 5.8 mph - N/A   Clear
1:35 AM 39.9 °F - 34.7 °F 82% 30.12 in 10.0 mi Calm Calm - N/A   Clear
1:55 AM 40.3 °F 38.2 °F 34.5 °F 80% 30.12 in 10.0 mi WSW 3.5 mph - N/A   Clear
2:15 AM 38.5 °F 36.1 °F 34.0 °F 84% 30.12 in 10.0 mi SSW 3.5 mph - N/A   Clear
2:35 AM 39.4 °F - 34.5 °F 83% 30.13 in 10.0 mi Calm Calm - N/A   Clear
2:55 AM 39.6 °F 37.4 °F 34.5 °F 82% 30.12 in 10.0 mi West 3.5 mph - N/A   Clear
3:15 AM 38.3 °F - 33.4 °F 83% 30.12 in 10.0 mi Calm Calm - N/A   Clear
3:35 AM 38.1 °F 34.6 °F 33.3 °F 83% 30.12 in 10.0 mi West 4.6 mph - N/A   Clear
3:55 AM 38.3 °F 35.9 °F 33.6 °F 83% 30.12 in 10.0 mi WSW 3.5 mph - N/A   Clear
4:15 AM 38.5 °F - 33.8 °F 83% 30.12 in 10.0 mi Calm Calm - N/A   Clear
4:35 AM 39.2 °F 37.0 °F 34.0 °F 82% 30.11 in 10.0 mi WSW 3.5 mph - N/A   Clear
4:55 AM 39.4 °F 37.2 °F 34.0 °F 81% 30.10 in 10.0 mi WSW 3.5 mph - N/A   Clear
5:15 AM 38.3 °F 35.9 °F 33.1 °F 81% 30.10 in 10.0 mi WNW 3.5 mph - N/A   Clear
5:35 AM 37.2 °F 33.6 °F 33.1 °F 85% 30.10 in 10.0 mi NW 4.6 mph - N/A   Clear
5:55 AM 36.5 °F - 32.9 °F 87% 30.10 in 10.0 mi Calm Calm - N/A   Clear
6:15 AM 37.4 °F - 32.7 °F 83% 30.10 in 10.0 mi Calm Calm - N/A   Clear
6:35 AM 37.9 °F 34.4 °F 32.5 °F 81% 30.11 in 10.0 mi NNW 4.6 mph - N/A   Clear
6:55 AM 37.4 °F 33.8 °F 32.0 °F 81% 30.11 in 10.0 mi WNW 4.6 mph - N/A   Clear
7:15 AM 38.7 °F 34.3 °F 32.2 °F 78% 30.12 in 10.0 mi SW 5.8 mph - N/A   Clear
7:35 AM 39.0 °F 36.8 °F 32.5 °F 78% 30.12 in 10.0 mi WSW 3.5 mph - N/A   Clear
7:55 AM 38.8 °F 36.5 °F 32.0 °F 76% 30.12 in 10.0 mi SW 3.5 mph - N/A   Clear
8:15 AM 39.4 °F - 32.0 °F 75% 30.12 in 10.0 mi Calm Calm - N/A   Clear
8:35 AM 38.8 °F 36.5 °F 32.0 °F 76% 30.12 in 10.0 mi NW 3.5 mph - N/A   Clear
8:55 AM 40.5 °F 35.8 °F 34.3 °F 79% 30.13 in 10.0 mi NE 6.9 mph - N/A   Clear
9:15 AM 41.5 °F 39.6 °F 33.8 °F 74% 30.13 in 10.0 mi NE 3.5 mph - N/A   Clear
9:35 AM 43.2 °F 41.5 °F 35.2 °F 74% 30.13 in 10.0 mi ENE 3.5 mph - N/A   Clear
9:55 AM 43.9 °F - 34.9 °F 71% 30.14 in 10.0 mi Calm Calm - N/A   Clear
10:15 AM 45.7 °F - 35.6 °F 68% 30.14 in 10.0 mi Calm Calm - N/A   Clear
10:35 AM 47.1 °F - 35.1 °F 63% 30.13 in 10.0 mi Calm Calm - N/A   Clear
10:55 AM 49.5 °F - 36.0 °F 60% 30.13 in 10.0 mi Calm Calm - N/A   Clear
11:15 AM 52.7 °F - 35.8 °F 53% 30.12 in 10.0 mi Calm Calm - N/A   Clear
11:35 AM 54.9 °F - 36.5 °F 50% 30.11 in 10.0 mi Calm Calm - N/A   Clear
11:55 AM 56.8 °F - 36.3 °F 46% 30.10 in 10.0 mi Calm Calm - N/A   Clear
12:15 PM 59.4 °F - 34.9 °F 40% 30.09 in 10.0 mi Calm Calm - N/A   Clear
12:35 PM 63.3 °F - 32.4 °F 31% 30.08 in 10.0 mi West 3.5 mph - N/A   Clear
12:55 PM 35.8 °F 28.3 °F -5.6 °F 17% 30.07 in 10.0 mi NW 10.4 mph - N/A   Clear
1:15 PM 65.3 °F - 28.2 °F 25% 30.05 in 10.0 mi NW 11.5 mph - N/A   Clear
1:35 PM 64.2 °F - 24.1 °F 22% 30.04 in 10.0 mi West 16.1 mph - N/A   Clear
1:55 PM 65.1 °F - 24.3 °F 21% 30.04 in 10.0 mi WNW 17.3 mph - N/A   Clear
2:15 PM - - - N/A% 30.04 in 10.0 mi WNW 16.1 mph 20.7 mph N/A   Clear
2:35 PM 64.4 °F - 25.7 °F 23% 30.03 in 10.0 mi NW 11.5 mph - N/A   Clear
2:55 PM 63.9 °F - 25.9 °F 24% 30.03 in 10.0 mi NNW 16.1 mph - N/A   Clear
3:15 PM 63.0 °F - 25.7 °F 24% 30.03 in 10.0 mi NW 16.1 mph - N/A   Clear
3:35 PM 64.2 °F - 25.5 °F 23% 30.03 in 10.0 mi NW 15.0 mph 18.4 mph N/A   Clear
3:55 PM 63.1 °F - 25.3 °F 24% 30.02 in 10.0 mi NW 13.8 mph 19.6 mph N/A   Clear
4:15 PM - - - N/A% 30.02 in 10.0 mi NW 9.2 mph - N/A   Clear
4:35 PM 60.8 °F - 26.6 °F 27% 30.02 in 10.0 mi NW 4.6 mph - N/A   Clear
4:55 PM 57.4 °F - 28.4 °F 33% 30.02 in 10.0 mi NNW 6.9 mph - N/A   Clear
5:15 PM 55.6 °F - 28.6 °F 36% 30.02 in 10.0 mi NNW 4.6 mph - N/A   Clear
5:35 PM 54.7 °F - 29.3 °F 38% 30.02 in 10.0 mi NNW 3.5 mph - N/A   Clear
5:55 PM 52.7 °F - 30.6 °F 43% 30.02 in 10.0 mi NW 4.6 mph - N/A   Clear
6:15 PM 49.1 °F - 31.1 °F 50% 30.02 in 10.0 mi WNW 3.5 mph - N/A   Clear
6:35 PM 45.5 °F - 31.6 °F 58% 30.02 in 10.0 mi Calm Calm - N/A   Clear
6:55 PM 48.2 °F - 30.9 °F 51% 30.02 in 10.0 mi Calm Calm - N/A   Clear
7:15 PM 46.2 °F - 30.9 °F 55% 30.02 in 10.0 mi Calm Calm - N/A   Clear
7:35 PM 45.7 °F 44.4 °F 33.1 °F 61% 30.02 in 10.0 mi SSW 3.5 mph - N/A   Clear
7:55 PM 45.0 °F 41.8 °F 31.6 °F 60% 30.00 in 10.0 mi SW 5.8 mph - N/A   Clear
8:15 PM 42.3 °F 40.5 °F 32.2 °F 67% 30.02 in 10.0 mi SW 3.5 mph - N/A   Clear
8:35 PM 37.9 °F 35.5 °F 30.6 °F 75% 30.00 in 10.0 mi SW 3.5 mph - N/A   Clear
8:55 PM 35.2 °F 32.4 °F 28.8 °F 77% 30.00 in 10.0 mi SSW 3.5 mph - N/A   Clear
9:15 PM 34.2 °F 27.5 °F 29.3 °F 82% 30.00 in 10.0 mi SW 8.1 mph - N/A   Clear
9:35 PM 39.0 °F 33.4 °F 31.1 °F 73% 30.01 in 10.0 mi SW 8.1 mph - N/A   Clear
9:55 PM 38.1 °F 33.7 °F 29.7 °F 72% 30.00 in 10.0 mi SW 5.8 mph - N/A   Clear
10:15 PM 38.8 °F 33.8 °F 28.8 °F 67% 29.99 in 10.0 mi SW 6.9 mph - N/A   Clear
10:35 PM 37.6 °F 33.1 °F 29.8 °F 74% 29.98 in 10.0 mi West 5.8 mph - N/A   Clear
10:55 PM 37.2 °F 31.9 °F 30.0 °F 75% 29.98 in 10.0 mi WSW 6.9 mph - N/A   Clear
11:15 PM 36.5 °F 29.2 °F 29.8 °F 77% 29.96 in 10.0 mi West 10.4 mph - N/A   Clear
11:35 PM 37.6 °F 30.5 °F 30.0 °F 74% 29.95 in 10.0 mi WSW 10.4 mph - N/A   Clear
11:55 PM 38.3 °F 35.9 °F 29.7 °F 71% 29.95 in 10.0 mi WSW 3.5 mph - N/A   Clear